Location: Bilsen
(53.7722°N, 9.8765°E)
Time: 00:37:06
(UTC+00:00)

Cosmos 1356 Rocket - Pass Details

Date: 18 February 2020
Orbit: 543 x 598 km, 81.2° (Epoch: 09 April)

Event Time Altitude Azimuth Distance (km) Brightness Sun altitude
Exits shadow 04:01:12 56° 164° (SSE) 672 3.6 -23.2°
Maximum altitude 04:01:58 73° 101° (E) 589 3.5 -23.1°
Drops below altitude 10° 04:06:05 10° 17° (NNE) 1,876 6.4 -22.5°
Sets 04:08:18 0° 15° (NNE) 2,788 7.3 -22.2°
